Location: Engelmannsreuth
(49.8125°N, 11.6497°E)
Time: 02:36:27
(UTC+00:00)

Cosmos 2333 Rocket - Pass Details

Date: 17 February 2020
Orbit: 841 x 860 km, 70.8° (Epoch: 03 April)

Event Time Altitude Azimuth Distance (km) Brightness Sun altitude
Exits shadow 05:13:56 - 313° (NW) 2,669 4.3 -11.4°
Reaches altitude 10° 05:15:18 10° 325° (NW) 2,496 4.3 -11.2°
Maximum altitude 05:16:47 11° 340° (NNW) 2,427 4.3 -11.0°
Drops below altitude 10° 05:18:17 10° 356° (N) 2,494 4.5 -10.7°
Sets 05:23:05 0° 32° (NNE) 3,426 5.7 -10.0°
